Torna al catalogo

COSMOS 2392 DEB

AttivoUNKNOWN
NORAD 27494·DEBRIS·🇷🇺 Russia

Lanciato Jul 25, 2002 da Baikonur Cosmodrome

Loading…

Prossimi Passaggi (prossime 24 ore)

TLE

AggiornatoSource: Space-Track

Epoca: Sep 14, 2026, 09:30 UTC

1 27494U 02037H   26257.39617663  .00000050  00000-0  73339-3 0  9994
2 27494  63.4389 137.9567 0572649 331.9765 202.2810 12.10901327 64737

Traccia COSMOS 2392 DEB in tempo reale con AllMySat

Download on the App Store